• En Estados Unidos
  • Lista de países
  • Para 7 días
  • Temperatura del agua
  • Mapa Satelital
  • El tiempo en el mapa
  • Informadores
  • user-avatar
    Iniciar sesión

    Tiempo cada hora Sidi Bu-l-Abbas

    Hoy, 18 Julio, Miércoles

    Tiempo Temperatura Precipitaciones Viento Presión Humedad
    00:00 +29°C° 0 mm 1 mps 719 mmHg 45%
    01:00 +28°C° 0 mm 1 mps 719 mmHg 48%
    02:00 +27°C° 0 mm 1 mps 718 mmHg 50%
    03:00 +27°C° 0 mm 1 mps 718 mmHg 53%
    04:00 +26°C° 0 mm 1 mps 718 mmHg 54%
    05:00 +26°C° 0 mm 2 mps 719 mmHg 55%
    06:00 +26°C° 0 mm 2 mps 719 mmHg 57%
    07:00 +28°C° 0 mm 2 mps 719 mmHg 51%
    08:00 +29°C° 0 mm 3 mps 719 mmHg 46%
    09:00 +31°C° 0 mm 3 mps 720 mmHg 41%
    10:00 +33°C° 0 mm 3 mps 720 mmHg 38%
    11:00 +34°C° 0 mm 4 mps 720 mmHg 34%
    12:00 +35°C° 0 mm 5 mps 721 mmHg 35%
    13:00 +36°C° 0 mm 5 mps 720 mmHg 33%
    14:00 +36°C° 0 mm 5 mps 720 mmHg 32%
    15:00 +37°C° 0 mm 5 mps 720 mmHg 30%
    16:00 +36°C° 0 mm 4 mps 720 mmHg 32%
    17:00 +35°C° 0 mm 3 mps 720 mmHg 34%
    18:00 +34°C° 0 mm 3 mps 720 mmHg 36%
    19:00 +32°C° 0 mm 2 mps 720 mmHg 40%
    20:00 +30°C° 0 mm 2 mps 721 mmHg 44%
    21:00 +29°C° 0 mm 1 mps 721 mmHg 48%
    22:00 +29°C° 0 mm 1 mps 721 mmHg 50%
    23:00 +28°C° 0 mm 1 mps 721 mmHg 52%

    Mañana, 19 Julio, Jueves

    Tiempo Temperatura Precipitaciones Viento Presión Humedad
    00:00 +26°C° 0 mm 0 mps 721 mmHg 53%
    01:00 +26°C° 0 mm 0 mps 721 mmHg 54%
    02:00 +25°C° 0 mm 0 mps 721 mmHg 55%
    03:00 +25°C° 0 mm 0 mps 720 mmHg 55%
    04:00 +25°C° 0 mm 0 mps 720 mmHg 55%
    05:00 +27°C° 0 mm 1 mps 720 mmHg 54%
    06:00 +27°C° 0 mm 1 mps 720 mmHg 54%
    07:00 +29°C° 0 mm 1 mps 721 mmHg 48%
    08:00 +31°C° 0 mm 1 mps 721 mmHg 43%
    09:00 +32°C° 0 mm 2 mps 721 mmHg 37%
    10:00 +35°C° 0 mm 2 mps 721 mmHg 32%
    11:00 +37°C° 0 mm 3 mps 721 mmHg 28%
    12:00 +40°C° 0 mm 4 mps 721 mmHg 23%
    13:00 +40°C° 0 mm 4 mps 721 mmHg 24%
    14:00 +40°C° 0 mm 4 mps 721 mmHg 25%
    15:00 +40°C° 0 mm 5 mps 720 mmHg 26%
    16:00 +37°C° 0 mm 4 mps 720 mmHg 27%
    17:00 +36°C° 0 mm 3 mps 720 mmHg 28%
    18:00 +35°C° 0 mm 3 mps 720 mmHg 30%
    19:00 +34°C° 0 mm 2 mps 720 mmHg 32%
    20:00 +32°C° 0 mm 2 mps 720 mmHg 35%
    21:00 +31°C° 0 mm 1 mps 721 mmHg 38%
    22:00 +31°C° 0 mm 1 mps 721 mmHg 38%
    23:00 +31°C° 0 mm 1 mps 721 mmHg 38%

    Pasado mañana, 20 Julio, Viernes

    Tiempo Temperatura Precipitaciones Viento Presión Humedad
    00:00 +30°C° 0 mm 1 mps 720 mmHg 38%
    01:00 +30°C° 0 mm 1 mps 720 mmHg 38%
    02:00 +30°C° 0 mm 1 mps 720 mmHg 38%
    03:00 +29°C° 0 mm 1 mps 719 mmHg 38%
    04:00 +29°C° 0 mm 1 mps 719 mmHg 39%
    05:00 +29°C° 0 mm 1 mps 719 mmHg 40%
    06:00 +29°C° 0 mm 1 mps 719 mmHg 40%
    07:00 +31°C° 0 mm 1 mps 720 mmHg 36%
    08:00 +32°C° 0 mm 2 mps 720 mmHg 31%
    09:00 +35°C° 0 mm 2 mps 720 mmHg 26%
    10:00 +36°C° 0 mm 3 mps 720 mmHg 24%
    11:00 +37°C° 0 mm 3 mps 720 mmHg 23%
    12:00 +38°C° 0 mm 4 mps 720 mmHg 21%
    13:00 +39°C° 0 mm 5 mps 720 mmHg 21%
    14:00 +39°C° 0 mm 5 mps 719 mmHg 20%
    15:00 +39°C° 0 mm 5 mps 719 mmHg 20%
    16:00 +37°C° 0 mm 4 mps 719 mmHg 21%
    17:00 +36°C° 0 mm 4 mps 719 mmHg 22%
    18:00 +35°C° 0 mm 3 mps 719 mmHg 23%
    19:00 +34°C° 0 mm 3 mps 719 mmHg 24%
    20:00 +32°C° 0 mm 2 mps 719 mmHg 25%
    21:00 +31°C° 0 mm 2 mps 720 mmHg 26%
    22:00 +30°C° 0 mm 2 mps 720 mmHg 27%
    23:00 +30°C° 0 mm 1 mps 719 mmHg 27%

    21 Julio, Sábado

    Tiempo Temperatura Precipitaciones Viento Presión Humedad
    00:00 +29°C° 0 mm 1 mps 719 mmHg 28%
    01:00 +29°C° 0 mm 1 mps 719 mmHg 29%
    02:00 +28°C° 0 mm 1 mps 719 mmHg 30%
    03:00 +28°C° 0 mm 1 mps 719 mmHg 30%
    04:00 +28°C° 0 mm 1 mps 719 mmHg 31%
    05:00 +28°C° 0 mm 1 mps 719 mmHg 31%
    06:00 +28°C° 0 mm 1 mps 719 mmHg 31%
    07:00 +29°C° 0 mm 1 mps 719 mmHg 28%
    08:00 +31°C° 0 mm 2 mps 720 mmHg 24%
    09:00 +32°C° 0 mm 2 mps 720 mmHg 20%
    10:00 +35°C° 0 mm 3 mps 720 mmHg 19%
    11:00 +36°C° 0 mm 3 mps 720 mmHg 18%
    12:00 +37°C° 0 mm 3 mps 720 mmHg 17%
    13:00 +37°C° 0 mm 4 mps 720 mmHg 18%
    14:00 +37°C° 0 mm 4 mps 720 mmHg 18%
    15:00 +37°C° 0 mm 4 mps 719 mmHg 19%
    16:00 +36°C° 0 mm 4 mps 719 mmHg 21%
    17:00 +35°C° 0 mm 4 mps 719 mmHg 24%
    18:00 +34°C° 0 mm 3 mps 719 mmHg 26%
    19:00 +33°C° 0 mm 3 mps 719 mmHg 27%
    20:00 +32°C° 0 mm 2 mps 719 mmHg 29%
    21:00 +31°C° 0 mm 2 mps 720 mmHg 30%
    22:00 +31°C° 0 mm 1 mps 720 mmHg 30%
    23:00 +30°C° 0 mm 1 mps 720 mmHg 31%

    22 Julio, Domingo

    Tiempo Temperatura Precipitaciones Viento Presión Humedad
    00:00 +30°C° 0 mm 1 mps 720 mmHg 31%
    01:00 +29°C° 0 mm 1 mps 720 mmHg 34%
    02:00 +28°C° 0 mm 1 mps 719 mmHg 36%
    03:00 +27°C° 0 mm 1 mps 719 mmHg 39%
    04:00 +28°C° 0 mm 1 mps 719 mmHg 39%
    05:00 +28°C° 0 mm 1 mps 719 mmHg 39%
    06:00 +28°C° 0 mm 2 mps 720 mmHg 39%
    07:00 +29°C° 0 mm 1 mps 720 mmHg 37%
    08:00 +29°C° 0 mm 1 mps 720 mmHg 35%
    09:00 +30°C° 0 mm 1 mps 720 mmHg 33%
    10:00 +31°C° 0 mm 2 mps 720 mmHg 31%
    11:00 +34°C° 0 mm 2 mps 720 mmHg 28%
    12:00 +35°C° 0 mm 3 mps 720 mmHg 25%
    13:00 +36°C° 0 mm 3 mps 720 mmHg 24%
    14:00 +36°C° 0 mm 3 mps 720 mmHg 24%
    15:00 +37°C° 0 mm 4 mps 720 mmHg 24%
    16:00 +36°C° 0 mm 4 mps 720 mmHg 27%
    17:00 +35°C° 0 mm 4 mps 720 mmHg 29%
    18:00 +35°C° 0 mm 4 mps 720 mmHg 31%
    19:00 +33°C° 0 mm 3 mps 720 mmHg 35%
    20:00 +31°C° 0 mm 3 mps 720 mmHg 38%
    21:00 +30°C° 0 mm 2 mps 721 mmHg 42%
    22:00 +30°C° 0 mm 2 mps 720 mmHg 44%
    23:00 +29°C° 0 mm 1 mps 720 mmHg 45%

    23 Julio, Lunes

    Tiempo Temperatura Precipitaciones Viento Presión Humedad
    00:00 +29°C° 0 mm 1 mps 720 mmHg 47%
    01:00 +28°C° 0 mm 1 mps 720 mmHg 50%
    02:00 +28°C° 0 mm 1 mps 720 mmHg 52%
    03:00 +27°C° 0 mm 1 mps 719 mmHg 54%
    04:00 +27°C° 0 mm 1 mps 719 mmHg 55%
    05:00 +27°C° 0 mm 1 mps 720 mmHg 56%
    06:00 +27°C° 0 mm 1 mps 720 mmHg 57%
    07:00 +28°C° 0 mm 1 mps 720 mmHg 50%
    08:00 +30°C° 0 mm 1 mps 720 mmHg 43%
    09:00 +31°C° 0 mm 1 mps 720 mmHg 37%
    10:00 +34°C° 0 mm 2 mps 720 mmHg 33%
    11:00 +35°C° 0 mm 2 mps 720 mmHg 29%
    12:00 +37°C° 0 mm 3 mps 720 mmHg 26%
    13:00 +37°C° 0 mm 3 mps 719 mmHg 26%
    14:00 +38°C° 0 mm 3 mps 719 mmHg 27%
    15:00 +38°C° 0 mm 4 mps 719 mmHg 27%
    16:00 +37°C° 0 mm 4 mps 719 mmHg 30%
    17:00 +36°C° 0 mm 4 mps 719 mmHg 34%
    18:00 +35°C° 0 mm 3 mps 718 mmHg 37%
    19:00 +33°C° 0 mm 3 mps 719 mmHg 40%
    20:00 +31°C° 0 mm 2 mps 719 mmHg 44%
    21:00 +30°C° 0 mm 2 mps 719 mmHg 48%
    22:00 +29°C° 0 mm 2 mps 719 mmHg 50%
    23:00 +29°C° 0 mm 1 mps 719 mmHg 52%
    Mostrar más